This is the latest recevied weather packets stored in our database for station/object TG9SRP-22. If no packets are shown the sender has not sent any weather packets the latest 1 day(s).
| Time | Temp. | Humidity | Pressure | Rain* | Wind** | Luminosity | Snow |
|---|---|---|---|---|---|---|---|
| 1778061574 | 17.22° C | 90% | 1015 hPa | 0 mm | - | - | - |
| 1778060373 | 16.67° C | 89% | 1015 hPa | 0 mm | - | - | - |
| 1778059172 | 18.33° C | 88% | 1014 hPa | 0 mm | - | - | - |
| 1778058571 | 13.33° C | 98% | 1015 hPa | 0 mm | - | - | - |
| 1778057370 | 15.56° C | 97% | 1015 hPa | 0 mm | - | - | - |
| 1778056169 | 14.44° C | 96% | 1015 hPa | 0 mm | - | - | - |
| 1778055568 | 15.56° C | 95% | 1015 hPa | 0 mm | - | - | - |
| 1778054326 | 17.22° C | 95% | 1015 hPa | 0 mm | - | - | - |
| 1778053125 | 16.11° C | 94% | 1015 hPa | 0 mm | - | - | - |
| 1778052524 | 16.67° C | 94% | 1014 hPa | 0 mm | - | - | - |
| 1778051323 | 15.56° C | 80% | 1014 hPa | 0 mm | - | - | - |
| 1778050722 | 16.11° C | 74% | 1015 hPa | 0 mm | - | - | - |
| 1778049521 | 17.22° C | 75% | 1015 hPa | 0 mm | - | - | - |
| 1778048920 | 15.56° C | 80% | 1015 hPa | 0 mm | - | - | - |
| 1778047719 | 16.67° C | 89% | 1015 hPa | 0 mm | - | - | - |
| 1778047118 | 17.22° C | 95% | 1015 hPa | 0 mm | - | - | - |
| 1778045917 | 16.11° C | 94% | 1015 hPa | 0 mm | - | - | - |
| 1778045316 | 16.67° C | 94% | 1015 hPa | 0 mm | - | - | - |
| 1778044114 | 18.33° C | 94% | 1015 hPa | 0 mm | - | - | - |
| 1778043514 | 14.44° C | 94% | 1015 hPa | 0 mm | - | - | - |
| 1778041712 | 17.22° C | 92% | 1015 hPa | 0 mm | - | - | - |
| 1778041111 | 15° C | 92% | 1015 hPa | 0 mm | - | - | - |
| 1778039910 | 17.22° C | 90% | 1015 hPa | 0 mm | - | - | - |
| 1778039309 | 17.78° C | 90% | 1015 hPa | 0 mm | - | - | - |
| 1778038709 | 18.33° C | 90% | 1015 hPa | 0 mm | - | - | - |
* Rain latest hour (hover to see other rain measurements)
** Current wind speed in m/s (hover to see current wind gust speed)